| time (UTC) | temp F | wind direction | speed MPH | gust MPH | rain 1hr in | rain 24hr in | rain mn in | humidity % | barometer mb |
| 20260902204347 | 95 | 338 | 3.0 | 5.0 | 0.00 | 0.00 | 0.00 | 37 | 1014.0 |
| 20260902203843 | 95 | 7 | 2.0 | 2.0 | 0.00 | 0.00 | 0.00 | 36 | 1014.0 |
| 20260902203338 | 96 | 303 | 4.0 | 6.0 | 0.00 | 0.00 | 0.00 | 35 | 1014.2 |
| 20260902202832 | 97 | 253 | 3.0 | 3.0 | 0.00 | 0.00 | 0.00 | 35 | 1014.2 |
| 20260902202328 | 96 | 313 | 3.0 | 5.0 | 0.00 | 0.00 | 0.00 | 35 | 1014.1 |
| 20260902201825 | 96 | 41 | 4.0 | 6.0 | 0.00 | 0.00 | 0.00 | 36 | 1014.1 |
| 20260902201325 | 95 | 293 | 2.0 | 2.0 | 0.00 | 0.00 | 0.00 | 36 | 1014.0 |
| 20260902200820 | 96 | 278 | 5.0 | 6.0 | 0.00 | 0.00 | 0.00 | 35 | 1014.3 |
| 20260902200315 | 95 | 281 | 2.0 | 3.0 | 0.00 | 0.00 | 0.00 | 37 | 1014.3 |
| 20260902195810 | 95 | 306 | 3.0 | 3.0 | 0.00 | 0.00 | 0.00 | 37 | 1014.6 |
| 20260902195309 | 95 | 295 | 3.0 | 6.0 | 0.00 | 0.00 | 0.00 | 38 | 1014.4 |
| 20260902194804 | 95 | 309 | 1.0 | 1.0 | 0.00 | 0.00 | 0.00 | 39 | 1014.7 |
| 20260902194259 | 94 | 277 | 3.0 | 3.0 | 0.00 | 0.00 | 0.00 | 39 | 1014.6 |
| 20260902193754 | 95 | 316 | 3.0 | 5.0 | 0.00 | 0.00 | 0.00 | 37 | 1015.0 |
| 20260902193250 | 95 | 316 | 3.0 | 5.0 | 0.00 | 0.00 | 0.00 | 37 | 1015.0 |
| 20260902192749 | 95 | 274 | 3.0 | 3.0 | 0.00 | 0.00 | 0.00 | 38 | 1014.9 |
| 20260902192248 | 95 | 257 | 3.0 | 5.0 | 0.00 | 0.00 | 0.00 | 38 | 1015.3 |
| 20260902191747 | 95 | 292 | 1.0 | 2.0 | 0.00 | 0.00 | 0.00 | 38 | 1015.3 |
| 20260902191243 | 95 | 290 | 2.0 | 2.0 | 0.00 | 0.00 | 0.00 | 39 | 1015.3 |
| 20260902190738 | 95 | 313 | 3.0 | 3.0 | 0.00 | 0.00 | 0.00 | 39 | 1015.5 |
| 20260902190237 | 95 | 240 | 4.0 | 6.0 | 0.00 | 0.00 | 0.00 | 38 | 1015.7 |
| 20260902185733 | 94 | 284 | 4.0 | 5.0 | 0.00 | 0.00 | 0.00 | 38 | 1015.5 |
| 20260902185229 | 94 | 245 | 5.0 | 6.0 | 0.00 | 0.00 | 0.00 | 39 | 1015.7 |
| 20260902184724 | 94 | 296 | 2.0 | 2.0 | 0.00 | 0.00 | 0.00 | 39 | 1015.7 |
| 20260902184220 | 94 | 19 | 3.0 | 5.0 | 0.00 | 0.00 | 0.00 | 39 | 1015.7 |
| 20260902183716 | 93 | 258 | 2.0 | 1.0 | 0.00 | 0.00 | 0.00 | 42 | 1015.7 |
| 20260902183212 | 94 | 291 | 2.0 | 3.0 | 0.00 | 0.00 | 0.00 | 41 | 1016.0 |
| 20260902182708 | 94 | 357 | 4.0 | 5.0 | 0.00 | 0.00 | 0.00 | 40 | 1016.0 |
| 20260902182204 | 93 | 312 | 2.0 | 3.0 | 0.00 | 0.00 | 0.00 | 42 | 1016.1 |
| 20260902181659 | 93 | 303 | 3.0 | 3.0 | 0.00 | 0.00 | 0.00 | 41 | 1015.8 |
| 20260902181154 | 93 | 250 | 3.0 | 5.0 | 0.00 | 0.00 | 0.00 | 41 | 1016.0 |
| 20260902180654 | 93 | 306 | 2.0 | 3.0 | 0.00 | 0.00 | 0.00 | 43 | 1016.3 |
| 20260902180150 | 93 | 234 | 2.0 | 3.0 | 0.00 | 0.00 | 0.00 | 41 | 1016.0 |
| 20260902175649 | 92 | 276 | 1.0 | 2.0 | 0.00 | 0.00 | 0.00 | 42 | 1016.2 |
| 20260902175145 | 93 | 293 | 3.0 | 3.0 | 0.00 | 0.00 | 0.00 | 41 | 1016.2 |
| 20260902174641 | 92 | 284 | 3.0 | 5.0 | 0.00 | 0.00 | 0.00 | 42 | 1016.4 |
| 20260902174137 | 91 | 15 | 3.0 | 3.0 | 0.00 | 0.00 | 0.00 | 43 | 1016.4 |
| 20260902173632 | 92 | 327 | 4.0 | 6.0 | 0.00 | 0.00 | 0.00 | 44 | 1016.4 |
| 20260902173127 | 91 | 255 | 2.0 | 2.0 | 0.00 | 0.00 | 0.00 | 44 | 1016.3 |
| 20260902172621 | 92 | 171 | 2.0 | 1.0 | 0.00 | 0.00 | 0.00 | 44 | 1016.4 |
| 20260902172121 | 92 | 270 | 1.0 | 2.0 | 0.00 | 0.00 | 0.00 | 44 | 1016.7 |
| 20260902171616 | 92 | 243 | 2.0 | 2.0 | 0.00 | 0.00 | 0.00 | 43 | 1016.2 |
| 20260902171112 | 93 | 219 | 3.0 | 2.0 | 0.00 | 0.00 | 0.00 | 43 | 1016.3 |
| 20260902170608 | 92 | 85 | 0.0 | 0.0 | 0.00 | 0.00 | 0.00 | 44 | 1016.2 |
| 20260902170103 | 92 | 96 | 0.0 | 0.0 | 0.00 | 0.00 | 0.00 | 45 | 1016.6 |
| 20260902165603 | 92 | 79 | 2.0 | 1.0 | 0.00 | 0.00 | 0.00 | 44 | 1016.7 |
| 20260902165057 | 91 | 96 | 1.0 | 1.0 | 0.00 | 0.00 | 0.00 | 45 | 1016.7 |
| 20260902164553 | 91 | 134 | 2.0 | 3.0 | 0.00 | 0.00 | 0.00 | 45 | 1016.6 |
| 20260902164051 | 91 | 119 | 1.0 | 1.0 | 0.00 | 0.00 | 0.00 | 44 | 1016.7 |
| 20260902163547 | 92 | 191 | 4.0 | 5.0 | 0.00 | 0.00 | 0.00 | 44 | 1016.6 |
| 20260902163045 | 92 | 124 | 1.0 | 1.0 | 0.00 | 0.00 | 0.00 | 45 | 1016.9 |
| 20260902162539 | 90 | 94 | 0.0 | 0.0 | 0.00 | 0.00 | 0.00 | 46 | 1016.7 |
| 20260902162035 | 90 | 133 | 2.0 | 3.0 | 0.00 | 0.00 | 0.00 | 46 | 1016.8 |
| 20260902161535 | 91 | 82 | 1.0 | 1.0 | 0.00 | 0.00 | 0.00 | 47 | 1016.9 |
| 20260902161031 | 91 | 83 | 0.0 | 0.0 | 0.00 | 0.00 | 0.00 | 46 | 1016.9 |
| 20260902160526 | 90 | 97 | 0.0 | 0.0 | 0.00 | 0.00 | 0.00 | 47 | 1016.6 |
| 20260902160021 | 90 | 108 | 1.0 | 1.0 | 0.00 | 0.00 | 0.00 | 48 | 1016.7 |
| 20260902155514 | 89 | 105 | 0.0 | 0.0 | 0.00 | 0.00 | 0.00 | 47 | 1016.9 |
| 20260902155013 | 88 | 86 | 0.0 | 0.0 | 0.00 | 0.00 | 0.00 | 48 | 1016.6 |
| 20260902154509 | 88 | 91 | 2.0 | 2.0 | 0.00 | 0.00 | 0.00 | 51 | 1016.9 |
| 20260902154003 | 87 | 70 | 2.0 | 2.0 | 0.00 | 0.00 | 0.00 | 52 | 1016.8 |
| 20260902153502 | 86 | 84 | 1.0 | 1.0 | 0.00 | 0.00 | 0.00 | 53 | 1016.8 |
| 20260902152957 | 86 | 57 | 2.0 | 2.0 | 0.00 | 0.00 | 0.00 | 53 | 1016.9 |
| 20260902152454 | 87 | 71 | 1.0 | 1.0 | 0.00 | 0.00 | 0.00 | 52 | 1016.7 |
| 20260902151949 | 86 | 91 | 0.0 | 0.0 | 0.00 | 0.00 | 0.00 | 52 | 1016.7 |
| 20260902151445 | 86 | 104 | 0.0 | 1.0 | 0.00 | 0.00 | 0.00 | 54 | 1016.8 |
| 20260902150944 | 84 | 108 | 1.0 | 1.0 | 0.00 | 0.00 | 0.00 | 56 | 1016.6 |
| 20260902150441 | 84 | 63 | 2.0 | 2.0 | 0.00 | 0.00 | 0.00 | 56 | 1016.4 |
| 20260902145940 | 83 | 81 | 2.0 | 2.0 | 0.00 | 0.00 | 0.00 | 57 | 1016.6 |
| 20260902145436 | 83 | 83 | 1.0 | 1.0 | 0.00 | 0.00 | 0.00 | 59 | 1016.6 |
| 20260902144930 | 82 | 65 | 1.0 | 1.0 | 0.00 | 0.00 | 0.00 | 61 | 1016.3 |
| 20260902144426 | 82 | 73 | 1.0 | 1.0 | 0.00 | 0.00 | 0.00 | 63 | 1016.3 |
| 20260902143926 | 84 | 77 | 1.0 | 1.0 | 0.00 | 0.00 | 0.00 | 60 | 1016.4 |
| 20260902143421 | 84 | 88 | 2.0 | 2.0 | 0.00 | 0.00 | 0.00 | 57 | 1016.4 |
| 20260902142917 | 83 | 89 | 0.0 | 0.0 | 0.00 | 0.00 | 0.00 | 60 | 1016.4 |
| 20260902142413 | 83 | 90 | 0.0 | 0.0 | 0.00 | 0.00 | 0.00 | 60 | 1016.6 |
| 20260902141908 | 82 | 90 | 0.0 | 0.0 | 0.00 | 0.00 | 0.00 | 62 | 1016.4 |
| 20260902141403 | 82 | 90 | 0.0 | 0.0 | 0.00 | 0.00 | 0.00 | 62 | 1016.2 |
| 20260902140903 | 82 | 90 | 0.0 | 0.0 | 0.00 | 0.00 | 0.00 | 61 | 1016.3 |
| 20260902140358 | 83 | 89 | 1.0 | 1.0 | 0.00 | 0.00 | 0.00 | 59 | 1016.1 |
| 20260902135858 | 81 | 89 | 0.0 | 0.0 | 0.00 | 0.00 | 0.00 | 62 | 1016.2 |
| 20260902135354 | 80 | 90 | 0.0 | 0.0 | 0.00 | 0.00 | 0.00 | 66 | 1016.3 |
| 20260902134852 | 78 | 89 | 0.0 | 0.0 | 0.00 | 0.00 | 0.00 | 68 | 1016.1 |
| 20260902134349 | 77 | 89 | 0.0 | 0.0 | 0.00 | 0.00 | 0.00 | 70 | 1016.1 |
| 20260902133843 | 76 | 89 | 0.0 | 0.0 | 0.00 | 0.00 | 0.00 | 72 | 1016.2 |
| 20260902133343 | 75 | 89 | 0.0 | 0.0 | 0.00 | 0.00 | 0.00 | 74 | 1016.1 |
| 20260902132838 | 74 | 89 | 0.0 | 0.0 | 0.00 | 0.00 | 0.00 | 75 | 1015.9 |
| 20260902132333 | 74 | 89 | 0.0 | 0.0 | 0.00 | 0.00 | 0.00 | 76 | 1015.8 |
| 20260902131829 | 74 | 90 | 0.0 | 0.0 | 0.00 | 0.00 | 0.00 | 76 | 1015.7 |
| 20260902131326 | 74 | 90 | 0.0 | 0.0 | 0.00 | 0.00 | 0.00 | 77 | 1015.8 |
| 20260902130825 | 73 | 90 | 0.0 | 0.0 | 0.00 | 0.00 | 0.00 | 79 | 1015.7 |
| 20260902130321 | 73 | 90 | 0.0 | 0.0 | 0.00 | 0.00 | 0.00 | 78 | 1015.7 |
| 20260902125816 | 73 | 90 | 0.0 | 0.0 | 0.00 | 0.00 | 0.00 | 78 | 1015.8 |
| 20260902125312 | 73 | 90 | 0.0 | 0.0 | 0.00 | 0.00 | 0.00 | 78 | 1015.6 |
| 20260902124808 | 74 | 90 | 0.0 | 0.0 | 0.00 | 0.00 | 0.00 | 78 | 1015.6 |
| 20260902124303 | 74 | 90 | 0.0 | 0.0 | 0.00 | 0.00 | 0.00 | 78 | 1015.8 |
| 20260902123758 | 74 | 90 | 0.0 | 0.0 | 0.00 | 0.00 | 0.00 | 78 | 1015.6 |
| 20260902123254 | 74 | 90 | 1.0 | 1.0 | 0.00 | 0.00 | 0.00 | 77 | 1015.6 |
| 20260902122753 | 74 | 90 | 0.0 | 0.0 | 0.00 | 0.00 | 0.00 | 77 | 1015.8 |
| 20260902122249 | 74 | 90 | 0.0 | 0.0 | 0.00 | 0.00 | 0.00 | 76 | 1015.8 |
| 20260902121748 | 74 | 89 | 1.0 | 1.0 | 0.00 | 0.00 | 0.00 | 77 | 1015.6 |
| 20260902121244 | 74 | 90 | 0.0 | 0.0 | 0.00 | 0.00 | 0.00 | 77 | 1015.5 |
| 20260902120739 | 74 | 89 | 0.0 | 0.0 | 0.00 | 0.00 | 0.00 | 77 | 1015.6 |
| 20260902120235 | 74 | 89 | 1.0 | 1.0 | 0.00 | 0.00 | 0.00 | 77 | 1015.4 |
| 20260902115730 | 74 | 87 | 1.0 | 1.0 | 0.00 | 0.00 | 0.00 | 77 | 1015.5 |
| 20260902115226 | 74 | 82 | 0.0 | 0.0 | 0.00 | 0.00 | 0.00 | 77 | 1015.6 |
| 20260902114722 | 74 | 82 | 1.0 | 1.0 | 0.00 | 0.00 | 0.00 | 78 | 1015.9 |
| 20260902114217 | 74 | 82 | 0.0 | 0.0 | 0.00 | 0.00 | 0.00 | 77 | 1015.5 |
| 20260902113712 | 74 | 82 | 0.0 | 0.0 | 0.00 | 0.00 | 0.00 | 77 | 1015.7 |
| 20260902113207 | 74 | 81 | 0.0 | 0.0 | 0.00 | 0.00 | 0.00 | 76 | 1015.5 |
| 20260902112707 | 74 | 81 | 0.0 | 1.0 | 0.00 | 0.00 | 0.00 | 76 | 1015.7 |
| 20260902112204 | 74 | 75 | 1.0 | 1.0 | 0.00 | 0.00 | 0.00 | 76 | 1015.3 |
| 20260902111659 | 74 | 83 | 1.0 | 1.0 | 0.00 | 0.00 | 0.00 | 76 | 1015.5 |
| 20260902111155 | 74 | 85 | 1.0 | 1.0 | 0.00 | 0.00 | 0.00 | 76 | 1015.6 |
| 20260902110650 | 75 | 86 | 1.0 | 1.0 | 0.00 | 0.00 | 0.00 | 76 | 1015.6 |
| 20260902110147 | 75 | 86 | 1.0 | 1.0 | 0.00 | 0.00 | 0.00 | 76 | 1015.6 |
| 20260902105646 | 75 | 86 | 0.0 | 0.0 | 0.00 | 0.00 | 0.00 | 76 | 1015.6 |
| 20260902105142 | 75 | 87 | 1.0 | 1.0 | 0.00 | 0.00 | 0.00 | 76 | 1015.7 |
| 20260902104637 | 75 | 88 | 1.0 | 1.0 | 0.00 | 0.00 | 0.00 | 75 | 1015.5 |
| 20260902104132 | 75 | 88 | 0.0 | 1.0 | 0.00 | 0.00 | 0.00 | 75 | 1015.5 |
| 20260902103631 | 75 | 88 | 1.0 | 1.0 | 0.00 | 0.00 | 0.00 | 76 | 1015.7 |
| 20260902103127 | 75 | 89 | 0.0 | 0.0 | 0.00 | 0.00 | 0.00 | 75 | 1015.7 |
| 20260902102623 | 75 | 89 | 0.0 | 0.0 | 0.00 | 0.00 | 0.00 | 75 | 1015.4 |
| 20260902102120 | 75 | 89 | 0.0 | 0.0 | 0.00 | 0.00 | 0.00 | 75 | 1015.6 |
| 20260902101616 | 75 | 89 | 0.0 | 0.0 | 0.00 | 0.00 | 0.00 | 74 | 1015.5 |
| 20260902101115 | 75 | 90 | 0.0 | 0.0 | 0.00 | 0.00 | 0.00 | 74 | 1015.7 |
| 20260902100609 | 75 | 90 | 0.0 | 0.0 | 0.00 | 0.00 | 0.00 | 74 | 1015.6 |
| 20260902100104 | 75 | 90 | 1.0 | 1.0 | 0.00 | 0.00 | 0.00 | 74 | 1015.5 |
| 20260902095603 | 75 | 89 | 0.0 | 0.0 | 0.00 | 0.00 | 0.00 | 75 | 1015.6 |
| 20260902095102 | 75 | 75 | 1.0 | 1.0 | 0.00 | 0.00 | 0.00 | 75 | 1015.5 |
| 20260902094558 | 75 | 67 | 1.0 | 1.0 | 0.00 | 0.00 | 0.00 | 74 | 1015.5 |
| 20260902094054 | 76 | 67 | 0.0 | 0.0 | 0.00 | 0.00 | 0.00 | 74 | 1015.6 |
| 20260902093553 | 76 | 100 | 0.0 | 0.0 | 0.00 | 0.00 | 0.00 | 74 | 1015.6 |
| 20260902093048 | 75 | 101 | 1.0 | 1.0 | 0.00 | 0.00 | 0.00 | 74 | 1015.5 |
| 20260902092538 | 75 | 101 | 0.0 | 0.0 | 0.00 | 0.00 | 0.00 | 75 | 1015.7 |
| 20260902092032 | 75 | 101 | 1.0 | 0.0 | 0.00 | 0.00 | 0.00 | 75 | 1015.7 |
| 20260902091528 | 75 | 101 | 0.0 | 0.0 | 0.00 | 0.00 | 0.00 | 75 | 1015.6 |
| 20260902091024 | 76 | 101 | 0.0 | 0.0 | 0.00 | 0.00 | 0.00 | 74 | 1015.4 |
| 20260902090520 | 76 | 101 | 0.0 | 0.0 | 0.00 | 0.00 | 0.00 | 74 | 1015.4 |
| 20260902090018 | 76 | 101 | 1.0 | 1.0 | 0.00 | 0.00 | 0.00 | 74 | 1015.5 |
| 20260902085513 | 76 | 101 | 0.0 | 0.0 | 0.00 | 0.00 | 0.00 | 74 | 1015.6 |
| 20260902085008 | 76 | 101 | 0.0 | 0.0 | 0.00 | 0.00 | 0.00 | 73 | 1015.3 |
| 20260902084504 | 76 | 101 | 0.0 | 0.0 | 0.00 | 0.00 | 0.00 | 73 | 1015.4 |
| 20260902083959 | 76 | 101 | 0.0 | 0.0 | 0.00 | 0.00 | 0.00 | 73 | 1015.2 |
| 20260902083454 | 76 | 101 | 0.0 | 0.0 | 0.00 | 0.00 | 0.00 | 72 | 1015.6 |
| 20260902082949 | 76 | 101 | 0.0 | 0.0 | 0.00 | 0.00 | 0.00 | 72 | 1015.3 |
| 20260902082444 | 77 | 101 | 0.0 | 0.0 | 0.00 | 0.00 | 0.00 | 71 | 1015.0 |
| 20260902081941 | 77 | 101 | 0.0 | 0.0 | 0.00 | 0.00 | 0.00 | 71 | 1015.3 |
| 20260902081437 | 77 | 101 | 0.0 | 0.0 | 0.00 | 0.00 | 0.00 | 70 | 1015.3 |
| 20260902080932 | 77 | 101 | 0.0 | 0.0 | 0.00 | 0.00 | 0.00 | 70 | 1015.2 |
| 20260902080428 | 77 | 101 | 1.0 | 1.0 | 0.00 | 0.00 | 0.00 | 70 | 1015.5 |
| 20260902075927 | 77 | 101 | 1.0 | 1.0 | 0.00 | 0.00 | 0.00 | 70 | 1014.9 |
| 20260902075424 | 77 | 101 | 1.0 | 1.0 | 0.00 | 0.00 | 0.00 | 71 | 1015.3 |
| 20260902074919 | 77 | 90 | 0.0 | 0.0 | 0.00 | 0.00 | 0.00 | 70 | 1015.3 |
| 20260902074415 | 77 | 89 | 1.0 | 1.0 | 0.00 | 0.00 | 0.00 | 69 | 1015.0 |
| 20260902073909 | 77 | 89 | 0.0 | 0.0 | 0.00 | 0.00 | 0.00 | 69 | 1015.2 |
| 20260902073405 | 77 | 89 | 0.0 | 0.0 | 0.00 | 0.00 | 0.00 | 69 | 1015.2 |
| 20260902072901 | 78 | 89 | 0.0 | 0.0 | 0.00 | 0.00 | 0.00 | 68 | 1015.3 |
| 20260902072357 | 78 | 89 | 0.0 | 0.0 | 0.00 | 0.00 | 0.00 | 68 | 1015.3 |
| 20260902071853 | 78 | 89 | 0.0 | 0.0 | 0.00 | 0.00 | 0.00 | 68 | 1015.0 |
| 20260902071353 | 78 | 89 | 0.0 | 0.0 | 0.00 | 0.00 | 0.00 | 67 | 1015.4 |
| 20260902070849 | 78 | 89 | 0.0 | 0.0 | 0.00 | 0.00 | 0.00 | 67 | 1015.2 |
| 20260902070344 | 78 | 89 | 0.0 | 0.0 | 0.00 | 0.00 | 0.00 | 66 | 1015.0 |
| 20260902065842 | 78 | 89 | 0.0 | 0.0 | 0.00 | 0.00 | 0.00 | 66 | 1014.9 |
| 20260902065338 | 78 | 89 | 0.0 | 0.0 | 0.00 | 0.00 | 0.00 | 66 | 1014.9 |
| 20260902064833 | 79 | 89 | 0.0 | 0.0 | 0.00 | 0.00 | 0.00 | 66 | 1015.0 |
| 20260902064329 | 79 | 89 | 1.0 | 0.0 | 0.00 | 0.00 | 0.00 | 66 | 1014.9 |
| 20260902063819 | 79 | 90 | 0.0 | 0.0 | 0.00 | 0.00 | 0.00 | 65 | 1015.0 |
| 20260902063318 | 79 | 90 | 0.0 | 0.0 | 0.00 | 0.00 | 0.00 | 64 | 1015.2 |
| 20260902062813 | 79 | 96 | 1.0 | 1.0 | 0.00 | 0.00 | 0.00 | 64 | 1015.2 |
| 20260902062308 | 79 | 100 | 0.0 | 0.0 | 0.00 | 0.00 | 0.00 | 63 | 1015.2 |
| 20260902061807 | 79 | 105 | 0.0 | 0.0 | 0.00 | 0.00 | 0.00 | 63 | 1014.8 |
| 20260902061302 | 79 | 85 | 0.0 | 0.0 | 0.00 | 0.00 | 0.00 | 62 | 1015.0 |
| 20260902060759 | 80 | 104 | 0.0 | 0.0 | 0.00 | 0.00 | 0.00 | 62 | 1014.8 |
| 20260902060254 | 80 | 94 | 1.0 | 1.0 | 0.00 | 0.00 | 0.00 | 61 | 1015.2 |
| 20260902055750 | 80 | 93 | 0.0 | 0.0 | 0.00 | 0.00 | 0.00 | 61 | 1014.7 |
| 20260902055246 | 80 | 93 | 1.0 | 1.0 | 0.00 | 0.00 | 0.00 | 60 | 1015.0 |
| 20260902054741 | 80 | 104 | 0.0 | 0.0 | 0.00 | 0.00 | 0.00 | 60 | 1015.2 |
| 20260902054237 | 80 | 104 | 1.0 | 1.0 | 0.00 | 0.00 | 0.00 | 60 | 1014.9 |
| 20260902053732 | 80 | 109 | 0.0 | 0.0 | 0.00 | 0.00 | 0.00 | 61 | 1015.0 |
| 20260902053231 | 81 | 110 | 0.0 | 0.0 | 0.00 | 0.00 | 0.00 | 60 | 1015.2 |
| 20260902052731 | 81 | 110 | 0.0 | 0.0 | 0.00 | 0.00 | 0.00 | 59 | 1015.2 |
| 20260902052227 | 80 | 85 | 1.0 | 1.0 | 0.00 | 0.00 | 0.00 | 58 | 1015.0 |
| 20260902051726 | 80 | 53 | 0.0 | 0.0 | 0.00 | 0.00 | 0.00 | 60 | 1015.2 |
| 20260902051220 | 81 | 52 | 1.0 | 1.0 | 0.00 | 0.00 | 0.00 | 60 | 1015.2 |
| 20260902050715 | 81 | 52 | 0.0 | 0.0 | 0.00 | 0.00 | 0.00 | 59 | 1015.2 |
| 20260902050211 | 81 | 52 | 0.0 | 0.0 | 0.00 | 0.00 | 0.00 | 59 | 1015.2 |
| 20260902045710 | 81 | 52 | 0.0 | 0.0 | 0.00 | 0.00 | 0.00 | 57 | 1015.2 |
| 20260902045207 | 81 | 52 | 0.0 | 0.0 | 0.00 | 0.00 | 0.00 | 57 | 1015.2 |
| 20260902044702 | 82 | 52 | 0.0 | 0.0 | 0.00 | 0.00 | 0.00 | 57 | 1015.2 |
| 20260902044158 | 82 | 52 | 0.0 | 0.0 | 0.00 | 0.00 | 0.00 | 56 | 1014.8 |
| 20260902043652 | 83 | 52 | 0.0 | 0.0 | 0.00 | 0.00 | 0.00 | 56 | 1015.0 |
| 20260902043148 | 83 | 52 | 0.0 | 0.0 | 0.00 | 0.00 | 0.00 | 55 | 1015.0 |
| 20260902042647 | 84 | 40 | 2.0 | 2.0 | 0.00 | 0.00 | 0.00 | 53 | 1014.7 |
| 20260902042143 | 84 | 305 | 0.0 | 0.0 | 0.00 | 0.00 | 0.00 | 51 | 1014.7 |
| 20260902041642 | 84 | 305 | 0.0 | 1.0 | 0.00 | 0.00 | 0.00 | 50 | 1014.9 |
| 20260902041137 | 84 | 305 | 0.0 | 0.0 | 0.00 | 0.00 | 0.00 | 50 | 1014.9 |
| 20260902040636 | 84 | 270 | 1.0 | 2.0 | 0.00 | 0.00 | 0.00 | 50 | 1014.7 |
| 20260902040132 | 85 | 262 | 2.0 | 2.0 | 0.00 | 0.00 | 0.00 | 49 | 1014.8 |
| 20260902035630 | 85 | 277 | 1.0 | 1.0 | 0.00 | 0.00 | 0.00 | 50 | 1014.6 |
| 20260902035126 | 85 | 294 | 0.0 | 1.0 | 0.00 | 0.00 | 0.00 | 49 | 1014.6 |
| 20260902034625 | 85 | 284 | 1.0 | 1.0 | 0.00 | 0.00 | 0.00 | 49 | 1014.6 |
| 20260902034119 | 85 | 290 | 1.0 | 2.0 | 0.00 | 0.00 | 0.00 | 49 | 1014.3 |
| 20260902033618 | 85 | 258 | 0.0 | 0.0 | 0.00 | 0.00 | 0.00 | 50 | 1014.3 |
| 20260902033113 | 85 | 273 | 0.0 | 0.0 | 0.00 | 0.00 | 0.00 | 50 | 1014.1 |
| 20260902032612 | 85 | 266 | 0.0 | 0.0 | 0.00 | 0.00 | 0.00 | 49 | 1013.9 |
| 20260902032107 | 85 | 287 | 1.0 | 1.0 | 0.00 | 0.00 | 0.00 | 49 | 1014.0 |
| 20260902031607 | 85 | 257 | 0.0 | 0.0 | 0.00 | 0.00 | 0.00 | 49 | 1013.8 |
| 20260902031103 | 85 | 257 | 0.0 | 0.0 | 0.00 | 0.00 | 0.00 | 49 | 1013.6 |
| 20260902030558 | 85 | 294 | 1.0 | 1.0 | 0.00 | 0.00 | 0.00 | 49 | 1013.6 |
| 20260902030058 | 86 | 295 | 1.0 | 1.0 | 0.00 | 0.00 | 0.00 | 48 | 1013.4 |
| 20260902025558 | 86 | 296 | 0.0 | 0.0 | 0.00 | 0.00 | 0.00 | 48 | 1013.1 |
| 20260902025053 | 86 | 300 | 0.0 | 0.0 | 0.00 | 0.00 | 0.00 | 48 | 1013.0 |
| 20260902024549 | 86 | 250 | 1.0 | 1.0 | 0.00 | 0.00 | 0.00 | 47 | 1013.2 |
| 20260902024048 | 86 | 288 | 0.0 | 0.0 | 0.00 | 0.00 | 0.00 | 47 | 1013.1 |
| 20260902023544 | 86 | 289 | 0.0 | 0.0 | 0.00 | 0.00 | 0.00 | 46 | 1013.2 |
| 20260902023039 | 87 | 303 | 0.0 | 0.0 | 0.00 | 0.00 | 0.00 | 45 | 1013.1 |
| 20260902022533 | 87 | 285 | 2.0 | 2.0 | 0.00 | 0.00 | 0.00 | 45 | 1013.0 |
| 20260902022029 | 87 | 301 | 2.0 | 2.0 | 0.00 | 0.00 | 0.00 | 43 | 1012.9 |
| 20260902021525 | 87 | 293 | 1.0 | 1.0 | 0.00 | 0.00 | 0.00 | 43 | 1012.7 |
| 20260902021025 | 87 | 302 | 3.0 | 3.0 | 0.00 | 0.00 | 0.00 | 42 | 1012.7 |
| 20260902020520 | 88 | 300 | 1.0 | 1.0 | 0.00 | 0.00 | 0.00 | 42 | 1012.6 |
| 20260902020016 | 88 | 302 | 1.0 | 1.0 | 0.00 | 0.00 | 0.00 | 41 | 1012.7 |
| 20260902015512 | 88 | 281 | 2.0 | 2.0 | 0.00 | 0.00 | 0.00 | 41 | 1012.8 |
| 20260902015007 | 88 | 296 | 1.0 | 1.0 | 0.00 | 0.00 | 0.00 | 41 | 1012.6 |
| 20260902014503 | 89 | 286 | 3.0 | 3.0 | 0.00 | 0.00 | 0.00 | 40 | 1012.5 |
| 20260902013958 | 89 | 309 | 2.0 | 2.0 | 0.00 | 0.00 | 0.00 | 40 | 1012.7 |
| 20260902013453 | 89 | 280 | 3.0 | 3.0 | 0.00 | 0.00 | 0.00 | 40 | 1012.4 |
| 20260902012948 | 89 | 260 | 2.0 | 2.0 | 0.00 | 0.00 | 0.00 | 41 | 1012.5 |
| 20260902012444 | 89 | 329 | 2.0 | 2.0 | 0.00 | 0.00 | 0.00 | 40 | 1012.4 |
| 20260902011939 | 90 | 302 | 4.0 | 6.0 | 0.00 | 0.00 | 0.00 | 40 | 1012.5 |
| 20260902011435 | 90 | 11 | 1.0 | 1.0 | 0.00 | 0.00 | 0.00 | 41 | 1012.5 |
| 20260902010934 | 90 | 302 | 1.0 | 1.0 | 0.00 | 0.00 | 0.00 | 41 | 1012.5 |
| 20260902010429 | 91 | 304 | 4.0 | 6.0 | 0.00 | 0.00 | 0.00 | 40 | 1012.2 |
| 20260902005928 | 91 | 299 | 4.0 | 5.0 | 0.00 | 0.00 | 0.00 | 40 | 1012.2 |
| 20260902005427 | 92 | 296 | 3.0 | 3.0 | 0.00 | 0.00 | 0.00 | 38 | 1012.4 |
| 20260902004923 | 92 | 324 | 3.0 | 5.0 | 0.00 | 0.00 | 0.00 | 38 | 1012.6 |
| 20260902004423 | 93 | 336 | 1.0 | 1.0 | 0.00 | 0.00 | 0.00 | 38 | 1012.5 |
| 20260902003918 | 93 | 255 | 2.0 | 3.0 | 0.00 | 0.00 | 0.00 | 38 | 1012.4 |
| 20260902003413 | 93 | 359 | 2.0 | 2.0 | 0.00 | 0.00 | 0.00 | 37 | 1012.5 |
| 20260902002909 | 93 | 313 | 3.0 | 3.0 | 0.00 | 0.00 | 0.00 | 36 | 1012.5 |
| 20260902002409 | 93 | 350 | 4.0 | 5.0 | 0.00 | 0.00 | 0.00 | 36 | 1012.7 |
| 20260902001903 | 93 | 321 | 4.0 | 6.0 | 0.00 | 0.00 | 0.00 | 36 | 1012.7 |
| 20260902001358 | 93 | 304 | 3.0 | 3.0 | 0.00 | 0.00 | 0.00 | 36 | 1012.6 |
| 20260902000853 | 94 | 302 | 2.0 | 2.0 | 0.00 | 0.00 | 0.00 | 35 | 1012.5 |
| 20260902000353 | 95 | 274 | 2.0 | 3.0 | 0.00 | 0.00 | 0.00 | 34 | 1012.7 |
| 20260901235848 | 94 | 339 | 0.0 | 0.0 | 0.00 | 0.00 | 0.00 | 35 | 1012.5 |
| 20260901235343 | 94 | 249 | 2.0 | 3.0 | 0.00 | 0.00 | 0.00 | 35 | 1012.8 |
| 20260901234838 | 94 | 297 | 4.0 | 6.0 | 0.00 | 0.00 | 0.00 | 34 | 1012.6 |
| 20260901234332 | 94 | 303 | 4.0 | 5.0 | 0.00 | 0.00 | 0.00 | 34 | 1012.8 |
| 20260901233827 | 94 | 292 | 2.0 | 2.0 | 0.00 | 0.00 | 0.00 | 34 | 1012.9 |
| 20260901233323 | 94 | 306 | 3.0 | 3.0 | 0.00 | 0.00 | 0.00 | 35 | 1012.9 |
| 20260901232819 | 95 | 288 | 3.0 | 5.0 | 0.00 | 0.00 | 0.00 | 34 | 1012.9 |
| 20260901232313 | 95 | 335 | 2.0 | 5.0 | 0.00 | 0.00 | 0.00 | 34 | 1013.1 |
| 20260901231809 | 95 | 320 | 2.0 | 3.0 | 0.00 | 0.00 | 0.00 | 35 | 1013.0 |
| 20260901231305 | 94 | 254 | 3.0 | 5.0 | 0.00 | 0.00 | 0.00 | 35 | 1013.0 |
| 20260901230801 | 95 | 285 | 3.0 | 3.0 | 0.00 | 0.00 | 0.00 | 34 | 1013.1 |
| 20260901230300 | 95 | 18 | 4.0 | 6.0 | 0.00 | 0.00 | 0.00 | 35 | 1013.0 |
| 20260901225756 | 95 | 345 | 3.0 | 3.0 | 0.00 | 0.00 | 0.00 | 35 | 1013.0 |
| 20260901225250 | 95 | 270 | 3.0 | 3.0 | 0.00 | 0.00 | 0.00 | 36 | 1013.0 |
| 20260901224746 | 95 | 5 | 1.0 | 1.0 | 0.00 | 0.00 | 0.00 | 35 | 1013.1 |
| 20260901224242 | 95 | 349 | 1.0 | 1.0 | 0.00 | 0.00 | 0.00 | 36 | 1013.0 |
| 20260901223738 | 95 | 339 | 1.0 | 1.0 | 0.00 | 0.00 | 0.00 | 35 | 1013.2 |
| 20260901223238 | 95 | 299 | 2.0 | 2.0 | 0.00 | 0.00 | 0.00 | 34 | 1013.3 |
| 20260901222734 | 96 | 45 | 1.0 | 1.0 | 0.00 | 0.00 | 0.00 | 34 | 1013.3 |
| 20260901222230 | 96 | 273 | 3.0 | 2.0 | 0.00 | 0.00 | 0.00 | 33 | 1013.3 |
| 20260901221726 | 95 | 258 | 1.0 | 1.0 | 0.00 | 0.00 | 0.00 | 32 | 1013.4 |
| 20260901221222 | 94 | 324 | 4.0 | 6.0 | 0.00 | 0.00 | 0.00 | 34 | 1013.5 |
| 20260901220721 | 95 | 298 | 5.0 | 6.0 | 0.00 | 0.00 | 0.00 | 34 | 1013.5 |
| 20260901220221 | 96 | 305 | 4.0 | 5.0 | 0.00 | 0.00 | 0.00 | 33 | 1013.4 |
| 20260901215720 | 95 | 262 | 1.0 | 1.0 | 0.00 | 0.00 | 0.00 | 34 | 1013.6 |
| 20260901215214 | 94 | 288 | 5.0 | 6.0 | 0.00 | 0.00 | 0.00 | 34 | 1013.6 |
| 20260901214712 | 94 | 206 | 3.0 | 3.0 | 0.00 | 0.00 | 0.00 | 33 | 1013.6 |
| 20260901214207 | 94 | 15 | 2.0 | 2.0 | 0.00 | 0.00 | 0.00 | 34 | 1013.8 |
| 20260901213706 | 94 | 49 | 2.0 | 3.0 | 0.00 | 0.00 | 0.00 | 34 | 1013.8 |
| 20260901213201 | 94 | 16 | 2.0 | 2.0 | 0.00 | 0.00 | 0.00 | 36 | 1014.0 |
| 20260901212700 | 95 | 8 | 0.0 | 0.0 | 0.00 | 0.00 | 0.00 | 35 | 1014.1 |
| 20260901212157 | 95 | 284 | 2.0 | 2.0 | 0.00 | 0.00 | 0.00 | 34 | 1014.5 |
| 20260901211656 | 94 | 24 | 1.0 | 1.0 | 0.00 | 0.00 | 0.00 | 35 | 1014.4 |
| 20260901211153 | 94 | 309 | 2.0 | 3.0 | 0.00 | 0.00 | 0.00 | 36 | 1014.5 |
| 20260901210648 | 94 | 314 | 4.0 | 5.0 | 0.00 | 0.00 | 0.00 | 35 | 1014.2 |
| 20260901210144 | 94 | 297 | 3.0 | 5.0 | 0.00 | 0.00 | 0.00 | 36 | 1014.5 |
| 20260901205640 | 93 | 5 | 2.0 | 2.0 | 0.00 | 0.00 | 0.00 | 37 | 1014.5 |
| 20260901205140 | 94 | 41 | 3.0 | 3.0 | 0.00 | 0.00 | 0.00 | 36 | 1014.5 |